Back to catalog

STARLINK-38305

AliveCommunicationsSSO
NORAD 100372·PAYLOAD·🇺🇸 United States

Launched Aug 19, 2026 from Vandenberg Space Force Base

Loading…

Next Passes (next 24 hours)

TLE

FreshSource: Space-Track

Epoch: Sep 14, 2026, 13:51 UTC

1 A0372U 26190B   26257.57760871  .00168626  00000-0  11080-2 0  9994
2 A0372  97.2845 111.6470 0001506  87.5139 272.6299 15.75215433  5440

Track STARLINK-38305 in real time with AllMySat

Download on the App Store